[[{"header":{"parameterUnit":"m.s-1","parameterCategory":1,"la1":30.2991,"la2":30.254,"lo1":-89.0895,"lo2":-89.0444,"dy":0.0017,"dx":0.0017,"nx":28,"ny":28,"refTime":"2025-01-18T09:00:00:Z","depth":0,"parameterNumber":2,"parameterNumberName":"U-component_of_WINDS"},"data":[0,0,0,0,0,0,0,0,0,0,0,0,0,0,0,0,0,0,0,0,0,0,0,0,0,0,0,0,0,0,0,0,0,0,0,0,0,0,0,0,0,0,0,0,0,0,0,0,0,0,0,0,0,0,0,0,0,0,2.5521,2.5522,0,2.5637,2.5638,2.564,2.5616,2.5614,2.5612,2.561,2.5741,2.5746,2.5752,0,0,0,0,0,0,0,0,0,0,0,0,0,2.5291,2.5295,2.5521,2.5522,2.5524,2.5637,2.5638,2.564,2.5617,2.5614,2.5612,2.5609,2.5739,2.5745,2.5752,0,0,0,0,0,0,0,0,0,0,0,0,0,2.5397,2.5296,2.552,2.5525,2.5527,2.5636,2.5638,2.564,2.5617,2.5614,2.5611,2.5608,2.5737,2.5745,2.5753,2.5868,0,0,2.5778,2.5782,0,0,0,0,0,0,0,0,2.5391,2.5406,2.5523,2.5525,2.5527,2.5609,2.5605,2.5717,2.5618,2.5583,2.561,2.5606,2.57,2.5711,2.574,2.5874,2.588,2.5779,2.5784,2.5787,2.579,0,0,0,0,0,0,0,2.5384,2.5401,2.5567,2.5525,2.5527,2.5526,2.5537,2.5626,2.5659,2.5586,2.5585,2.5598,2.5701,2.5733,2.5743,2.5882,2.5779,2.5786,2.5791,2.5794,2.612,2.6123,0,0,0,0,0,0,2.5373,2.5395,2.5563,2.557,2.545,2.5532,2.5545,2.5586,2.5658,2.5665,2.5601,2.5597,2.572,2.5734,2.5748,2.5889,2.5787,2.5795,2.58,2.6116,2.6121,2.6125,0,0,0,0,0,0,2.5368,2.5388,2.5559,2.5482,2.5504,2.554,2.5586,2.559,2.5622,2.5669,2.5676,2.5627,2.5718,2.5736,2.5838,2.5893,2.5799,2.5806,2.6112,2.6117,2.6123,2.6172,0,0,0,0,0,0,2.5362,2.5387,2.5428,2.5483,2.5508,2.5644,2.5589,2.5595,2.5634,2.563,2.5695,2.5702,2.5717,2.5826,2.5847,2.5903,2.5813,2.6107,2.6114,2.6121,2.6166,2.6178,2.6189,0,0,0,0,0,2.5354,2.5439,2.543,2.5451,2.5559,2.5647,2.5661,2.5673,2.5639,2.5683,2.5713,2.57,2.5884,2.5837,2.586,2.5919,2.6104,2.6112,2.612,2.616,2.6176,2.6189,0,0,0,0,0,0,2.5393,2.5446,2.5437,2.5542,2.559,2.5642,2.5698,2.5689,2.575,2.5744,2.5759,2.5774,2.5878,2.5909,2.5856,2.6036,2.599,2.6003,2.6012,2.6028,2.6039,2.603,2.5819,0,0,0,0,0,2.5413,2.5476,2.5521,2.561,2.5633,2.5661,2.57,2.5705,2.5756,2.5777,2.5815,2.5869,2.5939,2.5985,2.6052,2.617,2.6186,2.6223,2.6235,2.6244,2.6256,2.6324,2.6341,2.6152,2.6152,2.6152,0,0,2.5457,2.5494,2.5533,2.5618,2.5655,2.5724,2.5679,2.5752,2.5804,2.579,2.5887,2.5918,2.5979,2.609,2.6141,2.6119,2.6312,2.6255,2.6262,2.6269,2.6334,2.6352,2.6368,2.6158,2.6157,2.6156,0,0,2.5572,2.5605,2.5683,2.5721,2.5777,2.5795,2.5814,2.5868,2.5887,2.5984,2.5975,2.604,2.6159,2.6204,2.6242,2.6375,2.6367,2.6397,2.646,2.6526,2.6541,2.6554,2.6604,2.6621,2.6408,2.6409,2.6409,0,2.562,2.5718,2.5725,2.58,2.5839,2.5825,2.5907,2.5945,2.6022,2.6051,2.6024,2.6175,2.6215,2.6337,2.637,2.6401,2.6426,2.639,2.6537,2.6551,2.6564,2.6611,2.663,2.6412,2.6412,2.6411,2.6411,0,2.5776,2.5845,2.5902,2.5973,2.6019,2.6097,2.6119,2.6166,2.6167,2.619,2.6292,2.6339,2.6416,2.6446,2.6449,2.657,2.6555,2.6533,2.6486,2.6585,2.663,2.6648,2.6417,2.6416,2.6415,2.6414,0,0,2.5919,2.5992,2.6013,2.6046,2.6107,2.6163,2.6242,2.6314,2.6354,2.6409,2.6478,2.658,2.656,2.6603,2.6612,2.6669,2.6775,2.6641,2.6643,2.6666,2.6914,2.6931,2.6951,2.6769,2.6773,2.6775,2.6909,0,2.604,2.6175,2.6184,2.6308,2.6374,2.6363,2.6432,2.648,2.6504,2.6566,2.6594,2.6667,2.6634,2.666,2.6716,2.675,2.6825,2.674,2.6838,2.6841,2.6823,2.6975,2.6993,2.7117,2.6927,2.693,2.6932,0,2.6199,2.6255,2.6384,2.6437,2.6465,2.6527,2.6595,2.6653,2.6709,2.6723,2.6771,2.6773,2.6859,2.6808,2.6929,2.6871,2.6912,2.6935,2.694,2.6951,2.6893,2.6991,2.7156,2.7175,2.696,2.6957,2.6955,0,2.6292,2.64,2.6491,2.6519,2.6584,2.6628,2.6658,2.6709,2.6752,2.6813,2.6842,2.6914,2.6954,2.7011,2.7033,2.6994,2.7154,2.7105,2.7171,2.7171,2.7206,2.7204,2.7382,2.7231,2.723,2.723,2.7229,0,2.6427,2.6507,2.6534,2.659,2.6681,2.6693,2.6784,2.6812,2.6858,2.6924,2.692,2.6982,2.7006,2.7074,2.7092,2.7191,2.7209,2.7226,2.723,2.7227,2.7225,2.7254,2.7247,2.7235,2.7234,2.7233,2.7232,0,2.6546,2.6567,2.6666,2.6718,2.6734,2.6798,2.6845,2.6902,2.6925,2.7008,2.7028,2.7065,2.7145,2.7172,2.7269,2.7282,2.7397,2.7394,2.7377,2.7379,2.7444,2.7438,2.7648,2.7677,2.7505,2.7507,2.7508,0,2.6631,2.6692,2.6751,2.6792,2.6822,2.6889,2.6933,2.6948,2.6995,2.7063,2.7113,2.7191,2.7253,2.7382,2.742,2.7496,2.7495,2.7563,2.7507,2.7502,2.7498,2.7495,2.7502,2.7574,2.7576,2.7578,2.7579,0,2.6781,2.6788,2.6849,2.6914,2.6965,2.7018,2.707,2.7105,2.7129,2.7182,2.7261,2.731,2.7408,2.7486,2.7563,2.7599,2.7595,2.7596,2.7616,2.7614,2.7602,2.7611,2.7408,2.7592,2.759,2.7589,2.7589,2.7588,2.6887,2.6941,2.6991,2.7059,2.7099,2.7148,2.7204,2.7233,2.7297,2.7376,2.7382,2.7469,2.7526,2.7628,2.7667,2.7738,2.772,2.7748,2.7755,2.7762,2.7768,2.759,2.7752,2.7752,2.7752,2.7751,2.7751,0,2.7038,2.7069,2.7132,2.7202,2.7257,2.7244,2.7301,2.735,2.7424,2.7476,2.7537,2.763,2.7707,2.7751,2.7829,2.7877,2.7878,2.7898,2.7895,2.7904,2.7779,2.7755,2.7896,2.7896,2.7896,2.7896,2.7896,2.7896,2.7123,2.7214,2.7228,2.7341,2.7373,2.7454,2.7488,2.7534,2.7575,2.7677,2.774,2.7767,2.7818,2.7899,2.7971,2.7982,2.8012,2.8034,2.8044,2.7927,2.7912,2.7898,2.7875,2.804,2.804,2.8164,2.8165,2.8166]},{"header":{"parameterUnit":"m.s-1","parameterCategory":1,"la1":30.2991,"la2":30.254,"lo1":-89.0895,"lo2":-89.0444,"dy":0.0017,"dx":0.0017,"nx":28,"ny":28,"refTime":"2025-01-18T09:00:00:Z","depth":0,"parameterNumber":3,"parameterNumberName":"V-component_of_WINDS"},"data":[0,0,0,0,0,0,0,0,0,0,0,0,0,0,0,0,0,0,0,0,0,0,0,0,0,0,0,0,0,0,0,0,0,0,0,0,0,0,0,0,0,0,0,0,0,0,0,0,0,0,0,0,0,0,0,0,0,0,2.8166,2.8167,0,2.8286,2.8287,2.8288,2.8299,2.8297,2.8296,2.8295,2.8416,2.8421,2.8425,0,0,0,0,0,0,0,0,0,0,0,0,0,2.7945,2.7949,2.8166,2.8167,2.8169,2.8285,2.8287,2.8289,2.8299,2.8297,2.8296,2.8294,2.8415,2.842,2.8425,0,0,0,0,0,0,0,0,0,0,0,0,0,2.805,2.795,2.8166,2.8188,2.8191,2.8285,2.8287,2.8289,2.8299,2.8297,2.8295,2.8294,2.8413,2.842,2.8426,2.8505,0,0,2.8446,2.8449,0,0,0,0,0,0,0,0,2.8044,2.8058,2.8183,2.8187,2.819,2.8275,2.8254,2.8362,2.83,2.8258,2.8295,2.8293,2.8371,2.8381,2.8407,2.8511,2.8516,2.8447,2.8451,2.8454,2.8456,0,0,0,0,0,0,0,2.8037,2.8053,2.8213,2.8185,2.8189,2.8192,2.8204,2.8274,2.8324,2.8262,2.8263,2.8277,2.8372,2.8401,2.841,2.8518,2.8447,2.8453,2.8457,2.8459,2.8692,2.8694,0,0,0,0,0,0,2.8025,2.8047,2.8209,2.8217,2.8111,2.8197,2.8211,2.825,2.8323,2.8332,2.8278,2.8277,2.8391,2.8403,2.8415,2.8512,2.8454,2.846,2.8464,2.869,2.8693,2.8695,0,0,0,0,0,0,2.8021,2.804,2.8204,2.8132,2.8153,2.8203,2.8246,2.8253,2.8282,2.8336,2.8344,2.8298,2.839,2.8405,2.8483,2.8517,2.8463,2.8469,2.8687,2.8691,2.8694,2.8708,0,0,0,0,0,0,2.8014,2.8038,2.8069,2.8133,2.8157,2.8271,2.8248,2.8257,2.8293,2.8293,2.8357,2.8366,2.8389,2.8473,2.8489,2.8525,2.8474,2.8685,2.8689,2.8693,2.8705,2.8711,2.8717,0,0,0,0,0,2.8006,2.8068,2.8071,2.809,2.8197,2.8273,2.8287,2.8313,2.8296,2.8328,2.8362,2.8364,2.851,2.8481,2.8499,2.8537,2.8683,2.8688,2.8693,2.8702,2.871,2.8717,0,0,0,0,0,0,2.8007,2.8077,2.808,2.8165,2.8213,2.8275,2.8315,2.8321,2.8375,2.8372,2.8401,2.8416,2.8492,2.8522,2.8488,2.8617,2.8594,2.8603,2.8595,2.8603,2.8609,2.86,2.848,0,0,0,0,0,2.8017,2.8073,2.8131,2.82,2.8224,2.8265,2.8299,2.8315,2.8366,2.8386,2.8427,2.8476,2.8533,2.8569,2.8625,2.8709,2.8723,2.8744,2.875,2.8755,2.8762,2.8808,2.8818,2.8711,2.8711,2.8711,0,0,2.8038,2.8083,2.8117,2.8201,2.824,2.8297,2.8282,2.8343,2.8386,2.8396,2.8471,2.8502,2.8559,2.864,2.8677,2.8667,2.8795,2.8761,2.8765,2.877,2.8815,2.8825,2.8834,2.8715,2.8714,2.8714,0,0,2.8105,2.8145,2.8207,2.8246,2.8306,2.8333,2.8348,2.8409,2.843,2.8506,2.8515,2.8565,2.8663,2.8703,2.8736,2.8818,2.8821,2.8835,2.8867,2.8912,2.892,2.8928,2.8957,2.8967,2.8842,2.8842,2.8842,0,2.8124,2.8211,2.8238,2.8299,2.8335,2.8347,2.8409,2.8446,2.8521,2.8545,2.8533,2.8656,2.8695,2.8785,2.8805,2.8831,2.8848,2.8828,2.8917,2.8925,2.8932,2.896,2.8971,2.8844,2.8843,2.8843,2.8843,0,2.823,2.8291,2.8333,2.8405,2.8446,2.8508,2.8543,2.8582,2.8594,2.8622,2.87,2.8747,2.8812,2.8834,2.8847,2.8926,2.8918,2.8911,2.8888,2.8943,2.897,2.8981,2.8845,2.8845,2.8845,2.8844,0,0,2.8302,2.8388,2.8403,2.8436,2.8502,2.8549,2.861,2.8674,2.8707,2.8757,2.8809,2.8891,2.8885,2.8923,2.894,2.8979,2.904,2.8967,2.8969,2.8979,2.913,2.9135,2.9147,2.9043,2.9045,2.9047,2.9126,0,2.8377,2.8488,2.8513,2.8608,2.8664,2.8675,2.8729,2.8775,2.8803,2.8853,2.8884,2.8941,2.8929,2.8952,2.8991,2.9025,2.9071,2.9019,2.9091,2.9094,2.9077,2.9161,2.9167,2.9239,2.9136,2.9138,2.9139,0,2.848,2.8533,2.8633,2.8692,2.8716,2.8764,2.8825,2.8873,2.8925,2.8943,2.8984,2.8997,2.9061,2.9035,2.9123,2.9087,2.9118,2.9138,2.9142,2.915,2.912,2.9171,2.9263,2.9273,2.9156,2.9155,2.9154,0,2.8521,2.8618,2.8691,2.8719,2.8789,2.8822,2.8853,2.8903,2.894,2.8993,2.9016,2.9075,2.9108,2.9153,2.9181,2.9159,2.9267,2.9243,2.9282,2.9282,2.9305,2.9303,2.9402,2.9324,2.9324,2.9324,2.9324,0,2.8603,2.8663,2.8711,2.8755,2.8824,2.8852,2.8919,2.895,2.8994,2.9045,2.9058,2.9104,2.9139,2.919,2.9212,2.9282,2.9296,2.9311,2.9317,2.931,2.9308,2.9331,2.9327,2.9327,2.9326,2.9326,2.9325,0,2.8661,2.8695,2.8775,2.8835,2.8852,2.8899,2.8951,2.8994,2.9022,2.9085,2.9102,2.9145,2.9206,2.9239,2.9315,2.933,2.9407,2.941,2.939,2.9392,2.943,2.9426,2.9547,2.9564,2.9475,2.9476,2.9477,0,2.8711,2.8758,2.8823,2.8858,2.889,2.8946,2.8983,2.9013,2.9051,2.9114,2.915,2.9212,2.9263,2.9359,2.9397,2.9456,2.9459,2.9498,2.9468,2.946,2.946,2.9457,2.9461,2.9503,2.9504,2.9505,2.9505,0,2.8795,2.8809,2.8863,2.8923,2.8968,2.9016,2.9064,2.9092,2.9129,2.9171,2.9234,2.9274,2.9352,2.9413,2.9474,2.9504,2.9511,2.9514,2.9526,2.9521,2.9507,2.9515,2.9404,2.9511,2.9511,2.951,2.951,2.951,2.8851,2.8893,2.8945,2.9005,2.9044,2.9088,2.9132,2.9165,2.9219,2.9285,2.9299,2.9365,2.9415,2.9498,2.9531,2.9582,2.9575,2.9592,2.9597,2.9601,2.9602,2.9499,2.9594,2.9593,2.9593,2.9593,2.9593,0,2.8935,2.897,2.9024,2.9091,2.9137,2.914,2.9193,2.9231,2.929,2.9337,2.9387,2.9458,2.9518,2.956,2.962,2.9653,2.9658,2.9668,2.9666,2.9673,2.9606,2.9589,2.9663,2.9663,2.9663,2.9663,2.9663,2.9663,2.8985,2.9057,2.9077,2.9168,2.9202,2.9268,2.9298,2.9338,2.9376,2.9456,2.9505,2.9533,2.9578,2.9641,2.9695,2.9706,2.9727,2.9737,2.9748,2.9685,2.9678,2.967,2.9655,2.9742,2.9742,2.9811,2.9812,2.9812]}]]